Simultaneous Nadir Overpasses (SNOs) Predictions

Prediction of SNOs between NOAA-20 and PACE Satellite Orbit:

Table of predicted SNOs for the next 14.0 days since TLE Epoch: 2/15/2025
Index Date (NOAA-20) Time (NOAA-20) Lat,Lon (NOAA-20) SZA (NOAA-20 ) Date (PACE) Time (PACE) Lat,Lon (PACE) SZA (PACE ) Distance(km) Time Diff (sec)
1 02/17/2025 04:27:45 -79.83,-104.43 85.89 02/17/2025 04:28:37 -79.82,-104.30 85.93 2.57 52
2 02/17/2025 05:18:21 79.53, 65.54 93.58 02/17/2025 05:17:40 79.53, 65.45 93.61 2.06 41
3 02/19/2025 09:44:54 79.78, -3.30 93.25 02/19/2025 09:45:26 79.77, -3.17 93.21 2.67 32
4 02/19/2025 10:35:28 -79.45, 166.90 87.35 02/19/2025 10:34:29 -79.46, 166.75 87.30 3.18 59
5 02/21/2025 15:02:00 -79.68, 98.34 87.74 02/21/2025 15:02:14 -79.69, 98.25 87.73 2.07 14
6 02/23/2025 20:19:11 79.70,-161.18 91.49 02/23/2025 20:19:03 79.70,-161.02 91.47 3.17 8
7 02/26/2025 00:45:38 79.78, 131.54 90.81 02/26/2025 00:46:43 79.79, 131.40 90.80 2.99 65
8 02/26/2025 01:36:15 -79.54, -59.07 89.62 02/26/2025 01:35:48 -79.55, -59.19 89.59 2.59 27
9 02/28/2025 06:02:47 -79.78,-127.77 90.03 02/28/2025 06:03:31 -79.78,-127.76 90.06 0.30 44



Historial Predications of SNOs between NOAA-20 and PACE
